Location: Forst
(46.9333°N, 15.4333°E)
Time: 16:38:32
(UTC+00:00)

Tiangong - Visible Passes

Search period start: 25 September 2021 00:00
Search period end: 05 October 2021 00:00
Orbit: 382 x 385 km, 41.5° (Epoch: 25 September)

Date Brightness Start Highest point End Pass type
(mag) Time Alt. Az. Time Alt. Az. Time Alt. Az.
26 Sep 3.8 04:01:58 10° S 04:03:32 13° SSE 04:05:08 10° SE visible
28 Sep 3.3 03:38:25 12° SSW 03:40:17 18° SSE 03:42:34 10° ESE visible
29 Sep 3.9 02:41:27 12° SE 02:41:27 12° SE 02:42:11 10° SE visible
29 Sep 2.6 04:14:04 10° SW 04:16:49 27° S 04:19:35 10° ESE visible
30 Sep 2.7 03:16:39 23° S 03:17:03 23° SSE 03:19:39 10° ESE visible
01 Oct 2.4 03:51:49 17° SW 03:53:38 30° S 03:56:26 10° ESE visible
02 Oct 3.0 02:54:46 23° SE 02:54:46 23° SE 02:56:35 10° ESE visible
03 Oct 2.2 03:29:56 28° SSW 03:30:25 29° S 03:33:13 10° ESE visible
04 Oct 4.0 02:32:55 13° ESE 02:32:55 13° ESE 02:33:24 10° ESE visible
04 Oct 2.8 04:05:07 14° WSW 04:06:57 21° SSW 04:09:27 10° SE visible
